#timestamp,LO_Frequency,Hit,StdDev 
1575385215.5,286046997.1,N
1575385235.3,286046998.9,N
1575385255.1,286046998.2,N
1575385275.9,286047000.8,N
1575385295.7,286047001.1,N
1575385315.5,286047000.5,N
1575385335.4,286047002.6,N
1575385355.2,286047000.4,N
1575385375.1,286046998.1,N
1575385376.0,286046998.1,N
1575385395.8,286047002.0,N
1575385415.6,286047005.9,Y
1575385435.5,286047008.4,P
1575385455.3,286047006.2,N
1575385475.1,286047009.1,N
1575385495.9,286047009.4,N
1575385515.7,286047011.0,N
1575385535.6,286047011.8,Y
1575385555.4,286047005.7,P
1575385575.2,286047003.4,P
1575385595.1,286047003.4,N
1575385596.0,286047003.4,N
1575385615.8,286047005.4,Y
1575385635.7,286046998.7,P
1575385655.5,286047001.1,N
1575385675.3,286046999.1,N
1575385695.2,286046996.5,N
1575385715.0,286046997.5,N
1575385715.9,286046997.5,N
1575385735.8,286046995.4,N
1575385755.6,286046996.4,N
1575385775.4,286046996.0,N
1575385795.3,286046996.1,N
1575385815.1,286046995.2,N
1575385835.8,286046997.6,N
1575385855.7,286046997.4,N
1575385875.5,286046998.0,N
1575385895.4,286046997.8,N
1575385915.2,286046995.3,N
1575385935.0,286046995.4,N
1575385935.9,286046995.4,N
1575385955.8,286046995.2,N
1575385975.6,286046997.6,N
1575385995.4,286046995.3,N
1575386015.3,286046997.1,N
1575386035.1,286046997.3,N
1575386055.9,286046996.7,N
1575386075.7,286046995.0,N
1575386095.5,286046997.2,N
1575386115.4,286046995.0,N
1575386135.2,286046997.9,N
1575386155.0,286046997.8,N
1575386155.9,286046997.8,N
1575386175.8,286046997.2,N
1575386195.6,286046997.8,N
1575386215.5,286046996.7,N
1575386235.3,286046996.5,Y
1575386255.1,286047000.4,P
1575386275.9,286047000.9,N
1575386295.7,286046998.5,N
1575386315.6,286047001.1,N
1575386335.4,286047001.1,N
1575386355.2,286047001.1,N
1575386375.1,286046999.9,N
1575386376.0,286046999.9,N
1575386395.8,286047000.0,N
1575386415.6,286047000.7,N
1575386435.5,286046998.2,N
1575386455.3,286046998.4,N
1575386475.2,286046998.6,N
1575386495.9,286046999.7,N
1575386515.7,286046999.9,N
1575386535.6,286047000.7,N
1575386555.4,286047000.9,N
1575386575.2,286047000.8,N
1575386595.1,286047001.0,N
1575386596.0,286047001.0,N
1575386615.8,286047000.3,N
1575386635.7,286047000.1,N
1575386655.5,286046999.8,N
1575386675.3,286047000.6,N
1575386695.2,286047000.6,N
1575386715.0,286047000.2,N
1575386715.9,286047000.2,N
1575386735.8,286047002.5,N
1575386755.6,286047000.1,N
1575386775.4,286047002.3,N
1575386795.3,286047002.7,N
1575386815.1,286047002.1,N
1575386835.8,286047002.5,N
1575386855.7,286047001.4,N
1575386875.5,286047004.3,Y
1575386895.4,286047001.6,P
1575386915.2,286047004.3,P
1575386935.0,286047001.6,N
1575386935.9,286047001.6,N
1575386955.8,286047003.1,N
1575386975.6,286047003.1,N
1575386995.5,286047003.3,N
1575387015.3,286047001.5,N
1575387035.1,286047002.0,N
1575387055.9,286047003.0,N
1575387075.7,286047005.4,Y
1575387095.5,286047001.7,P
1575387115.4,286047004.3,P
1575387135.2,286047001.9,N
1575387155.1,286047002.0,N
1575387156.0,286047002.0,N
1575387175.8,286047004.4,Y
1575387195.6,286046998.5,P
1575387215.5,286046998.9,N
1575387235.3,286046998.3,N
1575387255.2,286046998.1,N
1575387275.9,286046998.6,N
1575387295.7,286046998.7,N
1575387315.6,286047001.0,N
1575387335.4,286046998.2,N
1575387355.2,286046998.9,N
1575387375.1,286046996.5,N
1575387376.0,286046996.5,N
1575387395.8,286046998.7,N
1575387415.7,286047000.8,N
1575387435.5,286047000.3,N
1575387455.3,286047001.0,N
1575387475.2,286047002.8,N
1575387495.0,286047003.9,N
1575387495.9,286047003.9,N
1575387515.7,286047003.1,N
1575387535.6,286047001.3,N
1575387555.4,286047001.8,N
1575387575.3,286047003.5,N
1575387595.1,286047002.1,N
1575387596.0,286047002.1,N
1575387615.8,286047001.4,N
1575387635.7,286047003.8,N
1575387655.5,286047001.8,N
1575387675.4,286047006.0,N
1575387695.2,286047004.8,N
1575387715.0,286047004.0,N
1575387715.9,286047004.0,N
1575387735.8,286047003.0,N
1575387755.6,286047005.3,N
1575387775.4,286047005.3,N
1575387795.3,286047005.7,N
1575387815.1,286047003.2,N
1575387835.9,286047002.9,N
1575387855.7,286047002.0,N
1575387875.5,286047002.0,N
1575387895.4,286047002.4,N
1575387915.2,286047000.1,N
1575387935.0,286046999.7,N
1575387935.9,286046999.7,N
1575387955.8,286047001.6,N
1575387975.6,286047000.1,N
1575387995.5,286047001.9,N
1575388015.3,286047001.4,N
1575388035.1,286047001.3,N
1575388055.9,286047001.7,N
1575388075.7,286047002.0,N
1575388095.6,286047002.6,N
1575388115.4,286047002.1,N
1575388135.2,286047004.4,N
1575388155.1,286047005.6,Y
1575388156.0,286047005.6,P
1575388175.8,286047001.6,N
1575388195.6,286047002.8,N
1575388215.5,286047001.0,N
1575388235.3,286047000.5,N
1575388255.2,286047000.7,N
1575388275.9,286047002.4,N
1575388295.7,286047001.0,N
1575388315.6,286046998.4,N
1575388335.4,286046998.3,N
1575388355.3,286046998.6,N
1575388375.1,286046998.8,N
1575388376.0,286046998.8,N
1575388395.8,286046996.5,N
1575388415.7,286046996.9,N
1575388435.5,286046997.2,N
1575388455.3,286046997.3,N
1575388475.2,286046997.7,N
1575388495.0,286046997.3,N
1575388495.9,286046997.3,N
1575388515.8,286046997.9,N
1575388535.6,286046997.7,N
1575388555.4,286046998.7,N
1575388575.3,286046998.4,N
1575388595.1,286047000.8,N
1575388615.8,286046998.9,N
1575388635.7,286046999.5,N
1575388655.5,286046999.6,N
1575388675.4,286046996.5,N
1575388695.2,286046996.6,N
1575388715.0,286046995.4,N
1575388715.9,286046995.4,N
1575388735.8,286046996.1,N
1575388755.6,286046993.3,Y
1575388775.5,286046997.8,P
1575388795.3,286046995.6,P
